[[{"header":{"parameterUnit":"m.s-1","parameterCategory":1,"la1":30.2991,"la2":30.254,"lo1":-89.0895,"lo2":-89.0444,"dy":0.0017,"dx":0.0017,"nx":28,"ny":28,"refTime":"2025-04-29T09:00:00:Z","depth":0,"parameterNumber":2,"parameterNumberName":"U-component_of_WINDS"},"data":[0,0,0,0,0,0,0,0,0,0,0,0,0,0,0,0,0,0,0,0,0,0,0,0,0,0,0,0,0,0,0,0,0,0,0,0,0,0,0,0,0,0,0,0,0,0,0,0,0,0,0,0,0,0,0,0,0,0,-2.3001,-2.3001,0,-2.2959,-2.2959,-2.2958,-2.2918,-2.2917,-2.2917,-2.2916,-2.2872,-2.2871,-2.2871,0,0,0,0,0,0,0,0,0,0,0,0,0,-2.3047,-2.3046,-2.3001,-2.3001,-2.3,-2.2959,-2.2959,-2.2958,-2.2918,-2.2917,-2.2917,-2.2916,-2.2872,-2.2871,-2.2871,0,0,0,0,0,0,0,0,0,0,0,0,0,-2.3018,-2.3046,-2.3001,-2.2975,-2.2972,-2.2959,-2.2959,-2.2958,-2.2918,-2.2917,-2.2917,-2.2916,-2.2873,-2.2872,-2.2871,-2.2879,0,0,-2.2867,-2.2867,0,0,0,0,0,0,0,0,-2.302,-2.3016,-2.298,-2.2977,-2.2974,-2.2943,-2.2958,-2.2932,-2.2918,-2.2939,-2.2916,-2.2916,-2.2896,-2.2893,-2.2887,-2.2877,-2.2875,-2.2867,-2.2867,-2.2866,-2.2866,0,0,0,0,0,0,0,-2.3022,-2.3018,-2.2984,-2.2979,-2.2976,-2.2966,-2.2961,-2.2953,-2.2922,-2.2937,-2.2934,-2.293,-2.2894,-2.2888,-2.2886,-2.2875,-2.2867,-2.2866,-2.2866,-2.2865,-2.2871,-2.2872,0,0,0,0,0,0,-2.3028,-2.302,-2.2986,-2.2983,-2.2995,-2.2966,-2.296,-2.2954,-2.2922,-2.2917,-2.293,-2.2928,-2.289,-2.2887,-2.2884,-2.2892,-2.2866,-2.2865,-2.2864,-2.287,-2.2871,-2.2872,0,0,0,0,0,0,-2.3029,-2.3025,-2.2987,-2.3001,-2.2995,-2.2966,-2.2959,-2.2953,-2.2947,-2.2917,-2.2911,-2.2929,-2.2889,-2.2885,-2.2881,-2.289,-2.2865,-2.2864,-2.2869,-2.2871,-2.2872,-2.2909,0,0,0,0,0,0,-2.303,-2.3026,-2.3029,-2.3001,-2.2995,-2.2985,-2.2959,-2.2953,-2.2945,-2.2942,-2.2915,-2.291,-2.2889,-2.2883,-2.288,-2.2888,-2.2863,-2.2868,-2.287,-2.2871,-2.2907,-2.2912,-2.2916,0,0,0,0,0,-2.3032,-2.304,-2.3029,-2.3025,-2.2998,-2.2986,-2.2982,-2.2958,-2.2946,-2.2949,-2.293,-2.291,-2.289,-2.2883,-2.2879,-2.2887,-2.2868,-2.287,-2.2871,-2.2905,-2.2911,-2.2915,0,0,0,0,0,0,-2.3069,-2.3036,-2.3023,-2.3023,-2.3008,-2.2979,-2.2982,-2.2965,-2.2952,-2.2949,-2.292,-2.2914,-2.2914,-2.29,-2.2893,-2.2895,-2.2876,-2.2877,-2.2903,-2.2908,-2.2912,-2.2915,-2.2862,0,0,0,0,0,-2.3077,-2.307,-2.3042,-2.3044,-2.3038,-2.3011,-2.3005,-2.2989,-2.2971,-2.2965,-2.2945,-2.2929,-2.2919,-2.2913,-2.2902,-2.2906,-2.2899,-2.291,-2.2914,-2.2918,-2.2918,-2.292,-2.2924,-2.2878,-2.2878,-2.2878,0,0,-2.3093,-2.3075,-2.3072,-2.3051,-2.3038,-2.3032,-2.3006,-2.3,-2.2996,-2.2963,-2.2958,-2.2944,-2.2924,-2.2924,-2.2923,-2.2913,-2.293,-2.292,-2.2923,-2.2922,-2.2922,-2.2926,-2.293,-2.2879,-2.2879,-2.2879,0,0,-2.312,-2.3105,-2.3106,-2.3093,-2.3073,-2.3056,-2.3056,-2.3031,-2.302,-2.3015,-2.2991,-2.2985,-2.2969,-2.2956,-2.2947,-2.2972,-2.2953,-2.2969,-2.299,-2.2992,-2.2996,-2.2999,-2.3007,-2.3011,-2.297,-2.297,-2.297,0,-2.3142,-2.3132,-2.3108,-2.3104,-2.3096,-2.3068,-2.3069,-2.3058,-2.3035,-2.303,-2.3019,-2.2999,-2.2984,-2.298,-2.2986,-2.298,-2.298,-2.2971,-2.2997,-2.3,-2.3003,-2.301,-2.3014,-2.2972,-2.2972,-2.2972,-2.2972,0,-2.3161,-2.3155,-2.3158,-2.3137,-2.313,-2.3128,-2.3104,-2.3099,-2.3084,-2.3068,-2.3064,-2.3045,-2.303,-2.3028,-2.3013,-2.3023,-2.3018,-2.3003,-2.2983,-2.3009,-2.3016,-2.3019,-2.2975,-2.2975,-2.2974,-2.2974,0,0,-2.3207,-2.3175,-2.3177,-2.3168,-2.3145,-2.3139,-2.3137,-2.3123,-2.312,-2.3106,-2.3103,-2.3091,-2.3078,-2.3068,-2.3051,-2.3053,-2.3074,-2.3037,-2.3037,-2.3044,-2.3084,-2.3095,-2.3099,-2.3062,-2.3062,-2.3063,-2.3086,0,-2.3229,-2.3224,-2.3203,-2.3203,-2.3197,-2.3172,-2.317,-2.3156,-2.3142,-2.3135,-2.3119,-2.3111,-2.3093,-2.3088,-2.3088,-2.3071,-2.3081,-2.3069,-2.3059,-2.3059,-2.3063,-2.3102,-2.3113,-2.3136,-2.3088,-2.3089,-2.3089,0,-2.3254,-2.3242,-2.3243,-2.3221,-2.3218,-2.3216,-2.3203,-2.3197,-2.3181,-2.317,-2.3161,-2.3142,-2.3139,-2.3122,-2.3117,-2.311,-2.3105,-2.3096,-2.3096,-2.3093,-2.3075,-2.31,-2.3142,-2.3145,-2.3093,-2.3093,-2.3092,0,-2.3287,-2.3272,-2.327,-2.3263,-2.3238,-2.3238,-2.3227,-2.3211,-2.3204,-2.3193,-2.3189,-2.3177,-2.317,-2.3162,-2.3141,-2.313,-2.3138,-2.312,-2.3129,-2.313,-2.3131,-2.3131,-2.3172,-2.3129,-2.3129,-2.3129,-2.3129,0,-2.3314,-2.3315,-2.3285,-2.3284,-2.3285,-2.3261,-2.3263,-2.325,-2.3236,-2.3232,-2.3209,-2.3206,-2.3179,-2.3173,-2.3157,-2.3156,-2.3153,-2.3144,-2.314,-2.3146,-2.3147,-2.3141,-2.3139,-2.313,-2.313,-2.313,-2.313,0,-2.335,-2.3331,-2.3327,-2.3304,-2.3299,-2.33,-2.328,-2.3279,-2.3264,-2.3259,-2.3257,-2.3234,-2.3226,-2.3205,-2.3191,-2.318,-2.3183,-2.3175,-2.3188,-2.3185,-2.3196,-2.3195,-2.3234,-2.3238,-2.3194,-2.3194,-2.3195,0,-2.3368,-2.3368,-2.3346,-2.3342,-2.3333,-2.3326,-2.332,-2.3298,-2.3292,-2.3275,-2.3276,-2.3266,-2.3257,-2.3245,-2.3227,-2.3217,-2.3208,-2.3223,-2.3206,-2.3212,-2.3208,-2.3208,-2.3208,-2.3226,-2.3226,-2.3227,-2.3227,0,-2.3401,-2.3392,-2.3384,-2.3373,-2.3366,-2.3357,-2.3346,-2.3344,-2.3319,-2.3314,-2.3306,-2.3299,-2.3286,-2.3276,-2.3263,-2.3253,-2.3236,-2.3233,-2.3234,-2.324,-2.3247,-2.3243,-2.3197,-2.3232,-2.3231,-2.3231,-2.3231,-2.323,-2.3428,-2.3428,-2.3412,-2.3404,-2.3394,-2.3385,-2.3382,-2.3368,-2.3361,-2.3348,-2.3336,-2.3329,-2.3315,-2.3296,-2.3286,-2.3281,-2.3272,-2.3274,-2.3275,-2.3276,-2.3278,-2.325,-2.3279,-2.3278,-2.3278,-2.3278,-2.3278,0,-2.346,-2.345,-2.3443,-2.3428,-2.3423,-2.3409,-2.3396,-2.3392,-2.3387,-2.3374,-2.3366,-2.3358,-2.3349,-2.3331,-2.3321,-2.332,-2.3312,-2.3318,-2.3317,-2.3315,-2.3287,-2.3286,-2.3325,-2.3325,-2.3325,-2.3325,-2.3325,-2.3325,-2.3476,-2.3475,-2.3464,-2.3457,-2.3446,-2.344,-2.3434,-2.3426,-2.3416,-2.3407,-2.34,-2.3389,-2.3375,-2.3364,-2.3355,-2.335,-2.3347,-2.3356,-2.3348,-2.3322,-2.3317,-2.3313,-2.3312,-2.3356,-2.3356,-2.3377,-2.3377,-2.3377]},{"header":{"parameterUnit":"m.s-1","parameterCategory":1,"la1":30.2991,"la2":30.254,"lo1":-89.0895,"lo2":-89.0444,"dy":0.0017,"dx":0.0017,"nx":28,"ny":28,"refTime":"2025-04-29T09:00:00:Z","depth":0,"parameterNumber":3,"parameterNumberName":"V-component_of_WINDS"},"data":[0,0,0,0,0,0,0,0,0,0,0,0,0,0,0,0,0,0,0,0,0,0,0,0,0,0,0,0,0,0,0,0,0,0,0,0,0,0,0,0,0,0,0,0,0,0,0,0,0,0,0,0,0,0,0,0,0,0,3.6096,3.6096,0,3.6092,3.6092,3.6092,3.6127,3.6128,3.6128,3.6129,3.6122,3.6121,3.612,0,0,0,0,0,0,0,0,0,0,0,0,0,3.6129,3.6128,3.6096,3.6096,3.6096,3.6092,3.6092,3.6092,3.6126,3.6128,3.6129,3.613,3.6122,3.6121,3.6119,0,0,0,0,0,0,0,0,0,0,0,0,0,3.6119,3.6128,3.6096,3.6112,3.6114,3.6092,3.6092,3.6092,3.6126,3.6128,3.6129,3.613,3.6123,3.6121,3.6119,3.608,0,0,3.6114,3.6114,0,0,0,0,0,0,0,0,3.6119,3.6117,3.611,3.6111,3.6113,3.6111,3.6101,3.6088,3.6126,3.6121,3.6129,3.6131,3.6117,3.6116,3.6112,3.608,3.608,3.6114,3.6113,3.6112,3.6112,0,0,0,0,0,0,0,3.612,3.6118,3.6094,3.611,3.6111,3.6119,3.6119,3.6099,3.6111,3.6122,3.6124,3.6124,3.6118,3.6113,3.6112,3.6079,3.6114,3.6113,3.6112,3.6111,3.6016,3.6015,0,0,0,0,0,0,3.6119,3.6118,3.6094,3.6094,3.612,3.6117,3.6117,3.611,3.6111,3.6113,3.6122,3.6125,3.6115,3.6114,3.6112,3.6067,3.6112,3.6111,3.611,3.6018,3.6016,3.6014,0,0,0,0,0,0,3.6119,3.6116,3.6094,3.6107,3.6105,3.6115,3.6107,3.6109,3.6105,3.6112,3.6114,3.6116,3.6116,3.6114,3.6088,3.6067,3.611,3.6109,3.6019,3.6017,3.6015,3.5976,0,0,0,0,0,0,3.612,3.6116,3.6102,3.6106,3.6104,3.6072,3.6106,3.6108,3.6103,3.6106,3.6106,3.6107,3.6117,3.6091,3.6087,3.6065,3.6107,3.6021,3.6018,3.6016,3.5979,3.5972,3.5967,0,0,0,0,0,3.6121,3.609,3.6101,3.6098,3.6087,3.607,3.6069,3.6082,3.6101,3.6086,3.6091,3.6107,3.607,3.6088,3.6084,3.6061,3.6023,3.6019,3.6016,3.5982,3.5973,3.5967,0,0,0,0,0,0,3.6081,3.6091,3.6103,3.6073,3.6071,3.6076,3.6058,3.6073,3.6065,3.6068,3.6084,3.6084,3.6055,3.6056,3.6075,3.6024,3.6049,3.6045,3.6025,3.6017,3.6011,3.6011,3.6106,0,0,0,0,0,3.607,3.6057,3.6065,3.6037,3.6036,3.6047,3.6041,3.6052,3.6049,3.6048,3.6051,3.6047,3.6035,3.6026,3.6015,3.5979,3.598,3.5962,3.5956,3.5951,3.5947,3.5928,3.5921,3.6003,3.6003,3.6003,0,0,3.6044,3.6047,3.6038,3.603,3.6029,3.6015,3.6046,3.6029,3.6019,3.6045,3.6022,3.6023,3.602,3.599,3.5976,3.5989,3.5924,3.5947,3.5942,3.5941,3.5924,3.5916,3.5909,3.6001,3.6001,3.6001,0,0,3.599,3.5991,3.5969,3.5968,3.5968,3.5976,3.5971,3.5974,3.5977,3.5954,3.5974,3.5961,3.5939,3.5937,3.5932,3.5879,3.5894,3.5875,3.5842,3.5825,3.5818,3.5812,3.5793,3.5786,3.5871,3.5871,3.5871,0,3.5957,3.5938,3.5955,3.5937,3.5933,3.5958,3.5935,3.5934,3.5929,3.5925,3.594,3.5914,3.5914,3.5883,3.587,3.5866,3.586,3.5874,3.5818,3.5812,3.5807,3.5789,3.5782,3.5868,3.5869,3.5869,3.5869,0,3.5898,3.5884,3.5866,3.5863,3.5857,3.5836,3.5849,3.5841,3.5852,3.5859,3.5835,3.5836,3.5826,3.5819,3.583,3.579,3.5799,3.5815,3.5841,3.5797,3.578,3.5774,3.5865,3.5866,3.5867,3.5867,0,0,3.5818,3.5826,3.5819,3.5818,3.5821,3.581,3.579,3.5782,3.5774,3.5771,3.5755,3.5737,3.5753,3.5748,3.5758,3.5743,3.5701,3.5762,3.5762,3.575,3.5658,3.5645,3.5637,3.5711,3.571,3.5709,3.5658,0,3.5765,3.5734,3.575,3.5716,3.5704,3.5729,3.5712,3.5711,3.5717,3.5706,3.5712,3.5699,3.5721,3.5718,3.5704,3.5709,3.5682,3.5713,3.5696,3.5695,3.5695,3.5628,3.5614,3.5566,3.5652,3.5651,3.565,0,3.57,3.5696,3.5661,3.5667,3.5662,3.5647,3.5641,3.5631,3.5631,3.5636,3.5632,3.5646,3.5627,3.5654,3.5627,3.5648,3.5642,3.5643,3.5642,3.564,3.5669,3.5624,3.5551,3.5544,3.564,3.5641,3.5641,0,3.5645,3.563,3.5608,3.5607,3.5613,3.5602,3.5603,3.5605,3.5599,3.5594,3.559,3.5582,3.5577,3.5571,3.5582,3.56,3.5555,3.5582,3.5558,3.5557,3.5546,3.5547,3.5471,3.5543,3.5543,3.5543,3.5543,0,3.5585,3.5563,3.5584,3.557,3.5546,3.5564,3.554,3.5544,3.5545,3.5532,3.5553,3.554,3.5557,3.5545,3.5554,3.5531,3.5529,3.5532,3.5535,3.553,3.553,3.5526,3.553,3.5541,3.5542,3.5542,3.5542,0,3.5519,3.5532,3.551,3.5518,3.552,3.5502,3.5508,3.5496,3.5504,3.5487,3.5484,3.5496,3.5484,3.5495,3.5483,3.5489,3.5459,3.5466,3.5459,3.5461,3.5437,3.5439,3.5355,3.5345,3.5424,3.5423,3.5422,0,3.5479,3.5463,3.5471,3.5464,3.5465,3.5454,3.545,3.5466,3.546,3.5459,3.5447,3.5437,3.543,3.5409,3.5416,3.5407,3.5414,3.5386,3.5413,3.5409,3.5414,3.5414,3.5413,3.538,3.5379,3.5378,3.5377,0,3.5408,3.5416,3.5408,3.5403,3.5397,3.5394,3.5392,3.5385,3.5403,3.5395,3.5384,3.5378,3.5367,3.5357,3.535,3.5351,3.5367,3.5369,3.5363,3.5358,3.5354,3.5356,3.5444,3.537,3.5371,3.5372,3.5372,3.5372,3.5354,3.5341,3.5345,3.5336,3.5337,3.5335,3.5324,3.5331,3.5322,3.5316,3.5326,3.5312,3.5313,3.5306,3.5305,3.5294,3.5306,3.5297,3.5295,3.5292,3.5289,3.5357,3.5293,3.5293,3.5293,3.5293,3.5294,0,3.5284,3.5288,3.528,3.5277,3.527,3.5288,3.5287,3.5279,3.5267,3.5267,3.5261,3.5248,3.5238,3.5245,3.5237,3.5227,3.5234,3.5224,3.5224,3.5225,3.5279,3.5285,3.5218,3.5218,3.5218,3.5218,3.5218,3.5218,3.5247,3.5226,3.5235,3.5215,3.5219,3.5206,3.5204,3.5202,3.5203,3.5188,3.5181,3.5186,3.5188,3.5181,3.5173,3.5175,3.5171,3.5158,3.5163,3.5213,3.5221,3.5228,3.5233,3.5157,3.5157,3.511,3.511,3.5109]}]]